This is the latest recevied weather packets stored in our database for station/object HB9TJM-8. If no packets are shown the sender has not sent any weather packets the latest 10 day(s).
| Time | Temp. | Humidity | Pressure | Rain* | Wind** | Luminosity | Snow |
|---|---|---|---|---|---|---|---|
| 1777134486 | 17.78° C | 35% | 1018 hPa | 0 mm | - | 47 W/m² | - |
| 1777134178 | 17.78° C | 35% | 1018.1 hPa | 0 mm | - | 60 W/m² | - |
| 1777133871 | 17.78° C | 34% | 1017.9 hPa | 0 mm | - | 52 W/m² | - |
| 1777133564 | 17.78° C | 33% | 1018.1 hPa | 0 mm | - | 97 W/m² | - |
| 1777133564 | 17.78° C | 33% | 1018.1 hPa | 0 mm | - | 97 W/m² | - |
| 1777133256 | 18.33° C | 36% | 1018.2 hPa | 0 mm | - | 204 W/m² | - |
| 1777132949 | 18.33° C | 34% | 1017.9 hPa | 0 mm | - | 176 W/m² | - |
| 1777132642 | 18.33° C | 34% | 1018 hPa | 0 mm | - | 59 W/m² | - |
| 1777132334 | 18.33° C | 34% | 1017.9 hPa | 0 mm | - | 143 W/m² | - |
| 1777132027 | 18.89° C | 36% | 1018 hPa | 0 mm | - | 56 W/m² | - |
| 1777131721 | 18.89° C | 34% | 1017.8 hPa | 0 mm | - | 56 W/m² | - |
| 1777131413 | 18.89° C | 33% | 1017.8 hPa | 0 mm | - | 57 W/m² | - |
| 1777131105 | 18.89° C | 34% | 1018 hPa | 0 mm | - | 81 W/m² | - |
| 1777131105 | 18.89° C | 34% | 1018 hPa | 0 mm | - | 81 W/m² | - |
| 1777130798 | 18.89° C | 35% | 1018.5 hPa | 0 mm | - | 63 W/m² | - |
| 1777130798 | 18.89° C | 35% | 1018.5 hPa | 0 mm | - | 63 W/m² | - |
| 1777130490 | 18.89° C | 34% | 1017.7 hPa | 0 mm | - | 72 W/m² | - |
| 1777130490 | 18.89° C | 34% | 1017.7 hPa | 0 mm | - | 72 W/m² | - |
| 1777130183 | 18.89° C | 34% | 1018 hPa | 0 mm | - | 86 W/m² | - |
| 1777130183 | 18.89° C | 34% | 1018 hPa | 0 mm | - | 86 W/m² | - |
| 1777129876 | 19.44° C | 35% | 1017.9 hPa | 0 mm | - | 67 W/m² | - |
| 1777129568 | 19.44° C | 34% | 1017.8 hPa | 0 mm | - | 367 W/m² | - |
| 1777129261 | 19.44° C | 34% | 1018.3 hPa | 0 mm | - | 478 W/m² | - |
| 1777128953 | 19.44° C | 38% | 1018.1 hPa | 0 mm | - | 493 W/m² | - |
| 1777128646 | 19.44° C | 36% | 1018.2 hPa | 0 mm | - | 516 W/m² | - |
* Rain latest hour (hover to see other rain measurements)
** Current wind speed in m/s (hover to see current wind gust speed)